Location: Newark
(46.3297°N, 3.5931°E)
Time: 02:06:15
(UTC+00:00)

ISS - Visible Passes

Search period start: 16 December 2019 00:00
Search period end: 26 December 2019 00:00
Orbit: 411 x 421 km, 51.6° (Epoch: 16 December)

Date Brightness Start Highest point End Pass type
(mag) Time Alt. Az. Time Alt. Az. Time Alt. Az.
20 Dec 0.0 06:09:15 10° SE 06:09:43 10° SE 06:10:12 10° ESE visible
22 Dec -1.4 06:06:11 10° SSW 06:08:58 25° SE 06:11:45 10° E visible
23 Dec -0.8 05:18:30 10° S 05:20:35 16° SE 05:22:40 10° E visible
24 Dec -3.2 06:05:05 10° SW 06:08:21 59° SSE 06:11:38 10° ENE visible
25 Dec -2.4 05:18:53 29° S 05:19:50 36° SE 05:22:56 10° ENE visible
